Location: Alexandria
(38.8050°N, 77.0470°W)
Time: 02:43:47
(UTC-05:00)

Vanguard 2 - Visible Passes

Search period start: 16 January 2018 00:00
Search period end: 26 January 2018 00:00
Orbit: 552 x 2940 km, 32.9° (Epoch: 14 January)

Date Brightness Start Highest point End Pass type
(mag) Time Alt. Az. Time Alt. Az. Time Alt. Az.
16 Jan 10.9 02:33:19 19° ESE 02:33:19 19° ESE 02:39:31 10° E visible
16 Jan 10.0 04:34:46 33° SSW 04:39:55 51° SSE 04:54:57 10° E visible
16 Jan 10.4 06:38:08 10° WSW 06:50:52 70° S 07:08:34 10° E visible
17 Jan 10.6 02:50:41 25° SE 02:50:41 25° SE 02:58:49 10° E visible
17 Jan 9.9 04:52:08 32° SW 04:57:49 58° SSE 05:13:24 10° E visible
17 Jan 10.4 06:56:11 10° W 07:09:06 70° S 07:26:51 10° ESE visible
18 Jan 10.3 03:07:59 33° SE 03:07:59 33° SE 03:17:41 10° E visible
18 Jan 9.9 05:09:26 30° SW 05:15:50 64° SSE 05:31:48 10° E visible
19 Jan 10.0 03:25:14 41° SE 03:25:14 41° SE 03:36:18 10° E visible
19 Jan 9.9 05:26:40 26° WSW 05:33:56 67° S 05:50:10 10° E visible
20 Jan 9.6 03:42:26 49° SSE 03:42:26 49° SSE 03:54:47 10° E visible
20 Jan 9.9 05:43:52 21° WSW 05:52:05 68° S 06:08:30 10° E visible
21 Jan 11.2 01:58:09 12° E 01:58:09 12° E 01:59:10 10° E visible
21 Jan 9.4 03:59:35 56° SSE 03:59:50 56° SSE 04:13:13 10° E visible
21 Jan 10.0 06:01:01 17° W 06:10:16 67° S 06:26:46 10° ESE visible
22 Jan 11.0 02:15:17 17° E 02:15:17 17° E 02:17:58 10° E visible
22 Jan 9.2 04:16:43 59° SSW 04:17:50 62° SSE 04:31:36 10° E visible
22 Jan 10.1 06:18:08 12° W 06:28:27 64° S 06:44:57 10° ESE visible
23 Jan 10.7 02:32:23 22° E 02:32:23 22° E 02:36:32 10° E visible
23 Jan 9.2 04:33:49 55° SW 04:35:54 64° S 04:49:57 10° E visible
23 Jan 10.2 06:35:42 10° W 06:46:37 59° SSW 07:02:58 10° ESE visible
24 Jan 10.4 02:49:29 28° ESE 02:49:29 28° ESE 02:54:58 10° E visible
24 Jan 9.2 04:50:55 47° WSW 04:54:01 65° S 05:08:15 10° ESE visible
25 Jan 10.1 03:06:35 34° ESE 03:06:35 34° ESE 03:13:21 10° E visible
25 Jan 9.4 05:08:00 38° WSW 05:12:08 62° S 05:26:29 10° ESE visible
